Regional Weather Roundup
Issued by NWS

Home | Current Version | Previous Version | Text Only | Print | Product List | Glossary Off
Versions: 1 2 3 4 5 6 7 8 9 10 11 12 13 14 15 16 17 18 19 20 21 22 23 24 25 26 27 28 29 30 31 32 33 34 35 36 37 38 39 40 41 42 43 44 45 46 47 48 49 50

000
ASUS43 KMKX 160811
RWRWI

WISCONSIN REGIONAL WEATHER ROUNDUP
NATIONAL WEATHER SERVICE MILWAUKEE/SULLIVAN WI
300 AM CDT TUE SEP 16 2014

NOTE: "FAIR" INDICATES FEW OR NO CLOUDS BELOW 12,000 FEET WITH NO
SIGNIFICANT WEATHER AND/OR OBSTRUCTIONS TO VISIBILITY.

WIZ001-002-006>008-014>016-023>028-160900-
NORTHWEST WISCONSIN

CITY           SKY/WX    TMP DP  RH WIND       PRES   REMARKS
SUPERIOR ARPT  CLEAR     42  37  83 SW9       30.13F
ASHLAND        CLEAR     43  37  79 SW8       30.14F
HAYWARD        CLEAR     34  32  92 CALM      30.17S
SIREN          CLEAR     36  34  92 CALM      30.18S
RICE LAKE      CLEAR     37  36  96 CALM      30.20F
LADYSMITH      CLEAR     36  35  96 CALM      30.20S
EAU CLAIRE     CLEAR     41  39  93 SW3       30.20S
MENOMONIE      SUNNY     39  38  96 CALM      30.20F
NEW RICHMOND   CLEAR     38  38 100 CALM      30.20S
OSCEOLA        CLEAR     37  37 100 CALM      30.22S
$$

WIZ003>005-009-010-017-018-160900-
NORTH CENTRAL WISCONSIN

CITY           SKY/WX    TMP DP  RH WIND       PRES   REMARKS
WOODRUFF       CLEAR     37  34  91 CALM      30.15S
RHINELANDER    CLEAR     34  32  92 W6        30.16F WCI  29
EAGLE RIVER    CLEAR     34  34 100 CALM      30.14F
LAND O LAKES   CLEAR     30  30  99 CALM      30.15S
PHILLIPS       CLEAR     34  33  96 CALM      30.16S
TOMAHAWK       CLEAR     31  30  96 CALM      30.17S
MEDFORD        CLEAR     35  34  96 CALM      30.18S
MERRILL        PTCLDY    33  33  99 CALM      30.18S
$$

WIZ029-030-035-036-043>047-160900-
CENTRAL WISCONSIN

CITY           SKY/WX    TMP DP  RH WIND       PRES   REMARKS
WAUSAU         CLEAR     40  38  93 NW3       30.17S
MOSINEE        CLEAR     37  37 100 W5        30.19S WCI  34
MARSHFIELD     CLEAR     38  36  92 W3        30.19S
STEVENS POINT  CLEAR     33  32  96 CALM      30.20R
WAUPACA        CLEAR     41  40  95 CALM      30.19F
WAUTOMA        CLEAR     37  36  96 CALM      30.21S FOG
WISC RAPIDS    CLEAR     37  36  96 CALM      30.21S
CAMP DOUGLAS   CLEAR     35  35 100 SE1       30.20F
$$

WIZ011>013-019>022-031-037>040-048>050-160900-
NORTHEAST WISCONSIN

CITY           SKY/WX    TMP DP  RH WIND       PRES   REMARKS
ANTIGO         CLEAR     34  34  99 CALM      30.17S
STURGEON BAY   CLEAR     45  39  81 CALM      30.16S
GREEN BAY      CLEAR     40  39  97 W3        30.18S
MANITOWOC      CLEAR     45  42  89 NW5       30.17S
APPLETON       CLEAR     41  39  93 W8        30.18F
CLINTONVILLE   CLEAR     39  37  93 CALM      30.18S
OSHKOSH        CLEAR     44  41  89 W6        30.19R
$$

WIZ032>034-041-042-053>061-160900-
SOUTHWEST WISCONSIN

CITY           SKY/WX    TMP DP  RH WIND       PRES   REMARKS
LA CROSSE      FOG       46  43  89 S7        30.22S VSB 1
SPARTA         MOCLDY    34  34 100 CALM      30.23S
VIROQUA        FAIR      41  41 100 CALM      30.22S
BOSCOBEL       FOG       45  44  97 S3        30.25R VSB 1/4
PRAIRIE DU CHI FOG       42  41  95 CALM      30.24S VSB 1/2
PLATTEVILLE    FAIR      42  41  97 CALM      30.24S
$$

WIZ056-057-062-063-064-067-068-160900-
SOUTH CENTRAL WISCONSIN

CITY           SKY/WX    TMP DP  RH WIND       PRES   REMARKS
BARABOO/DELLS  CLEAR     39  38  96 CALM      30.22S
LONE ROCK      HAZE      44  39  82 W3        30.24R VSB 1/4
WATERTOWN      CLEAR     41  41 100 CALM      30.20R
MADISON        FOG       40  39  97 CALM      30.22S VSB 1
MIDDLETON      FAIR      42  41  99 CALM      30.22S
MONROE         CLEAR     45  43  93 NW8       30.21S
JANESVILLE     CLEAR     43  41  93 CALM      30.20S
$$

WIZ051-052-058>065-066-070>072-160900-
SOUTHEAST WISCONSIN

CITY           SKY/WX    TMP DP  RH WIND       PRES   REMARKS
MILWAUKEE      CLEAR     49  44  83 W8        30.18R
WAUKESHA       CLEAR     43  41  93 W7        30.20R
MILWAUKEE/TIMM CLEAR     43  41  93 W5        30.20R
RACINE         CLEAR     47  44  90 W8        30.19S
BURLINGTON     CLEAR     40  40 100 NW5       30.19S
KENOSHA        CLEAR     44  43  96 W6        30.19R
FOND DU LAC    CLEAR     44  40  85 W6        30.19S
SHEBOYGAN      CLEAR     45  41  86 NW3       30.18R
WEST BEND      CLEAR     43  41  93 CALM      30.18S
JUNEAU         CLEAR     42  40  94 CALM      30.21S
$$

LSZ147-162-160900-
LAKE SUPERIOR

STATION/POSITION TIME  TEMP    WIND        PRES    WAVE
                       AIR SEA DIR/SP/G            HT/PER
                 (UTC) (F)     (DEG/KT/KT) (MB)    (FT/S)
W MID LAKE BUOY  0750   50 47  250/ 12/ 14 1018.7F   2/ 4
DEVILS ISLAND    0800   50     230/ 13/ 16 1019.7F
PORT WING        0700   47     190/  5/  7 1020.3S
SAXON HARBOR     0740   47     190/  7/ 11 1020.3F
$$

LMZ867-665-643>646-160900-
LAKE MICHIGAN

STATION/POSITION TIME  TEMP    WIND        PRES    WAVE
                       AIR SEA DIR/SP/G            HT/PER
                 (UTC) (F)     (DEG/KT/KT) (MB)    (FT/S)
N MID LAKE BUOY  0750   55 58  290/ 10/ 12 1020.3F   1/ 3
NORTHPORT PIER   0700   54     290/  5/ 10 1020.3S
KEWAUNEE LAKESHO 0700   47     310/  5/  6 1020.1
SHEBOYGAN LAKESH 0800   49 47  300/  9/ 11 1022.2R
PORT WASHINGTON  0700   50     300/  7/ 12 1022.0S
ATWATER BUOY     0800   52     310/ 12/ 14 1022.7R
MILWAUKEE LAKESH 0700   51     300/ 10/ 13   N/A
S MID LAKE BUOY  0750   58 64  310/  8/ 10 1021.7S   1/ 3
KENOSHA   LAKESH 0800   48     280/ 10/ 13 1022.0R
$$

TC  - TEMPERATURE IN CELSIUS
VSB - VISIBILITY IN STATUTE MILES
WCI - WIND CHILL INDEX
HX  - HEAT INDEX




USA.gov is the U.S. government's official web portal to all federal, state and local government web resources and services.